| time (UTC) | temp C | wind direction | speed KPH | gust KPH | rain 1hr cm | rain 24hr cm | rain mn cm | humidity % | barometer mb |
| 20260902163120 | 29 | 260 | 0.0 | 1.6 | 0.00 | 0.10 | 0.00 | 74 | 1013.5 |
| 20260902161605 | 28 | 0 | 0.0 | 4.8 | 0.00 | 0.10 | 0.00 | 78 | 1013.5 |
| 20260902160059 | 27 | 0 | 0.0 | 6.4 | 0.00 | 0.10 | 0.00 | 79 | 1013.3 |
| 20260902154607 | 27 | 94 | 3.2 | 11.3 | 0.00 | 0.13 | 0.00 | 80 | 1013.2 |
| 20260902153104 | 26 | 78 | 4.8 | 9.7 | 0.00 | 0.13 | 0.00 | 81 | 1013.3 |
| 20260902151603 | 26 | 82 | 4.8 | 9.7 | 0.00 | 0.13 | 0.00 | 80 | 1013.4 |
| 20260902150103 | 26 | 108 | 6.4 | 12.9 | 0.00 | 0.13 | 0.00 | 81 | 1013.4 |
| 20260902144602 | 25 | 108 | 6.4 | 14.5 | 0.00 | 0.13 | 0.00 | 82 | 1013.6 |
| 20260902143107 | 25 | 93 | 6.4 | 11.3 | 0.00 | 0.13 | 0.00 | 83 | 1013.6 |
| 20260902141603 | 24 | 71 | 3.2 | 9.7 | 0.00 | 0.13 | 0.00 | 84 | 1013.9 |
| 20260902140107 | 24 | 78 | 1.6 | 4.8 | 0.00 | 0.13 | 0.00 | 84 | 1014.2 |
| 20260902134601 | 24 | 65 | 0.0 | 3.2 | 0.00 | 0.13 | 0.00 | 84 | 1014.3 |
| 20260902133105 | 23 | 77 | 4.8 | 8.0 | 0.00 | 0.13 | 0.00 | 85 | 1014.1 |
| 20260902131608 | 23 | 99 | 6.4 | 9.7 | 0.00 | 0.13 | 0.00 | 87 | 1014.3 |
| 20260902124606 | 22 | 0 | 1.6 | 3.2 | 0.00 | 0.13 | 0.00 | 93 | 1014.6 |
| 20260902123106 | 22 | 0 | 0.0 | 1.6 | 0.00 | 0.13 | 0.00 | 94 | 1014.7 |
| 20260902121609 | 22 | 198 | 0.0 | 1.6 | 0.00 | 0.13 | 0.00 | 94 | 1014.6 |
| 20260902120121 | 22 | 110 | 1.6 | 8.0 | 0.00 | 0.13 | 0.00 | 94 | 1014.6 |
| 20260902114602 | 22 | 0 | 0.0 | 0.0 | 0.00 | 0.13 | 0.00 | 94 | 1014.1 |
| 20260902113108 | 22 | 273 | 0.0 | 3.2 | 0.00 | 0.13 | 0.00 | 94 | 1014.1 |
| 20260902111625 | 22 | 0 | 0.0 | 0.0 | 0.00 | 0.13 | 0.00 | 93 | 1013.3 |
| 20260902110103 | 22 | 249 | 0.0 | 1.6 | 0.00 | 0.13 | 0.00 | 93 | 1013.4 |
| 20260902104615 | 22 | 0 | 0.0 | 0.0 | 0.00 | 0.13 | 0.00 | 93 | 1013.5 |
| 20260902103123 | 22 | 255 | 0.0 | 1.6 | 0.00 | 0.13 | 0.00 | 92 | 1013.5 |
| 20260902101603 | 22 | 0 | 0.0 | 3.2 | 0.00 | 0.13 | 0.00 | 91 | 1013.4 |
| 20260902100110 | 22 | 218 | 0.0 | 4.8 | 0.00 | 0.13 | 0.00 | 91 | 1013.6 |
| 20260902094606 | 23 | 195 | 0.0 | 4.8 | 0.00 | 0.13 | 0.00 | 91 | 1013.6 |
| 20260902093105 | 22 | 278 | 1.6 | 3.2 | 0.00 | 0.13 | 0.00 | 95 | 1013.3 |
| 20260902091610 | 22 | 0 | 0.0 | 1.6 | 0.00 | 0.13 | 0.00 | 95 | 1013.3 |
| 20260902090104 | 22 | 0 | 0.0 | 0.0 | 0.00 | 0.13 | 0.00 | 95 | 1013.3 |
| 20260902084607 | 22 | 0 | 0.0 | 0.0 | 0.00 | 0.13 | 0.00 | 95 | 1013.4 |
| 20260902083114 | 22 | 0 | 0.0 | 0.0 | 0.00 | 0.13 | 0.00 | 95 | 1013.4 |
| 20260902081601 | 22 | 0 | 0.0 | 0.0 | 0.00 | 0.13 | 0.00 | 95 | 1013.3 |
| 20260902080059 | 22 | 0 | 0.0 | 0.0 | 0.00 | 0.13 | 0.00 | 95 | 1013.1 |
| 20260902074619 | 23 | 0 | 0.0 | 0.0 | 0.00 | 0.13 | 0.00 | 95 | 1013.2 |
| 20260902073059 | 23 | 0 | 0.0 | 0.0 | 0.00 | 0.13 | 0.00 | 95 | 1013.2 |
| 20260902071602 | 23 | 0 | 0.0 | 0.0 | 0.00 | 0.13 | 0.00 | 95 | 1013.1 |
| 20260902070106 | 23 | 0 | 0.0 | 0.0 | 0.00 | 0.13 | 0.00 | 95 | 1013.2 |
| 20260902064601 | 23 | 0 | 0.0 | 0.0 | 0.00 | 0.13 | 0.00 | 95 | 1013.3 |
| 20260902063103 | 23 | 0 | 0.0 | 0.0 | 0.00 | 0.13 | 0.00 | 94 | 1013.3 |
| 20260902061603 | 23 | 0 | 0.0 | 0.0 | 0.00 | 0.13 | 0.00 | 95 | 1013.3 |
| 20260902060107 | 23 | 0 | 0.0 | 0.0 | 0.00 | 0.13 | 0.00 | 94 | 1013.5 |
| 20260902054609 | 23 | 0 | 0.0 | 1.6 | 0.00 | 0.13 | 0.00 | 95 | 1013.4 |
| 20260902053113 | 23 | 0 | 0.0 | 1.6 | 0.00 | 0.13 | 0.00 | 95 | 1013.3 |
| 20260902051624 | 23 | 0 | 0.0 | 0.0 | 0.00 | 0.13 | 0.00 | 95 | 1013.2 |
| 20260902050110 | 23 | 0 | 0.0 | 0.0 | 0.00 | 0.13 | 0.00 | 95 | 1013.1 |
| 20260902044609 | 23 | 0 | 0.0 | 0.0 | 0.00 | 0.13 | 0.13 | 95 | 1013.2 |
| 20260902043121 | 24 | 0 | 0.0 | 0.0 | 0.00 | 0.13 | 0.13 | 95 | 1013.3 |
| 20260902041603 | 24 | 0 | 0.0 | 0.0 | 0.00 | 0.13 | 0.13 | 95 | 1013.3 |
| 20260902040105 | 24 | 0 | 0.0 | 0.0 | 0.00 | 0.13 | 0.13 | 95 | 1013.1 |
| 20260902034601 | 25 | 0 | 0.0 | 0.0 | 0.00 | 0.13 | 0.13 | 95 | 1013.2 |
| 20260902033057 | 25 | 0 | 0.0 | 1.6 | 0.00 | 0.13 | 0.13 | 95 | 1013.3 |
| 20260902031601 | 24 | 0 | 0.0 | 0.0 | 0.00 | 0.13 | 0.13 | 94 | 1013.4 |
| 20260902030057 | 25 | 0 | 0.0 | 0.0 | 0.00 | 0.13 | 0.13 | 94 | 1013.5 |
| 20260902024600 | 25 | 0 | 0.0 | 0.0 | 0.00 | 0.13 | 0.13 | 94 | 1013.4 |
| 20260902023108 | 25 | 0 | 0.0 | 0.0 | 0.00 | 0.13 | 0.13 | 94 | 1013.5 |
| 20260902021604 | 25 | 0 | 0.0 | 0.0 | 0.00 | 0.13 | 0.13 | 94 | 1013.7 |
| 20260902020059 | 25 | 0 | 0.0 | 0.0 | 0.00 | 0.13 | 0.13 | 93 | 1013.8 |
| 20260902014601 | 25 | 0 | 0.0 | 0.0 | 0.00 | 0.13 | 0.13 | 93 | 1013.5 |
| 20260902013059 | 25 | 0 | 0.0 | 0.0 | 0.00 | 0.13 | 0.13 | 93 | 1013.2 |
| 20260902011630 | 25 | 0 | 0.0 | 0.0 | 0.00 | 0.13 | 0.13 | 92 | 1013.2 |
| 20260902010058 | 26 | 0 | 0.0 | 0.0 | 0.00 | 0.13 | 0.13 | 92 | 1013.1 |
| 20260902004604 | 26 | 0 | 0.0 | 0.0 | 0.00 | 0.13 | 0.13 | 91 | 1013.0 |
| 20260902003105 | 26 | 0 | 0.0 | 0.0 | 0.00 | 0.13 | 0.13 | 90 | 1012.9 |
| 20260902001600 | 26 | 0 | 0.0 | 0.0 | 0.00 | 0.13 | 0.13 | 88 | 1012.8 |
| 20260902000106 | 27 | 0 | 0.0 | 0.0 | 0.00 | 0.13 | 0.13 | 87 | 1012.7 |
| 20260901234611 | 27 | 0 | 0.0 | 0.0 | 0.00 | 0.13 | 0.13 | 87 | 1012.8 |
| 20260901233108 | 27 | 0 | 0.0 | 0.0 | 0.00 | 0.13 | 0.13 | 85 | 1012.8 |
| 20260901231620 | 27 | 49 | 0.0 | 3.2 | 0.00 | 0.13 | 0.13 | 83 | 1012.4 |
| 20260901230113 | 28 | 79 | 0.0 | 1.6 | 0.00 | 0.13 | 0.13 | 81 | 1012.4 |
| 20260901224602 | 28 | 0 | 0.0 | 1.6 | 0.00 | 0.13 | 0.13 | 80 | 1013.0 |
| 20260901223103 | 27 | 0 | 0.0 | 1.6 | 0.00 | 0.13 | 0.13 | 81 | 1013.1 |
| 20260901221625 | 28 | 251 | 0.0 | 1.6 | 0.00 | 0.13 | 0.13 | 80 | 1013.3 |
| 20260901220118 | 28 | 0 | 0.0 | 1.6 | 0.00 | 0.13 | 0.13 | 78 | 1013.1 |
| 20260901214558 | 28 | 0 | 0.0 | 3.2 | 0.00 | 0.13 | 0.13 | 79 | 1013.0 |
| 20260901213110 | 28 | 253 | 0.0 | 3.2 | 0.00 | 0.13 | 0.13 | 79 | 1013.3 |
| 20260901211559 | 28 | 0 | 0.0 | 1.6 | 0.00 | 0.13 | 0.13 | 80 | 1013.3 |
| 20260901210116 | 27 | 0 | 1.6 | 6.4 | 0.03 | 0.13 | 0.13 | 79 | 1013.4 |
| 20260901204613 | 27 | 0 | 0.0 | 3.2 | 0.05 | 0.13 | 0.13 | 82 | 1013.4 |
| 20260901203104 | 27 | 263 | 0.0 | 6.4 | 0.05 | 0.13 | 0.13 | 81 | 1013.4 |
| 20260901201600 | 26 | 260 | 1.6 | 4.8 | 0.10 | 0.13 | 0.13 | 87 | 1013.6 |
| 20260901200116 | 26 | 249 | 4.8 | 11.3 | 0.08 | 0.10 | 0.10 | 86 | 1013.9 |
| 20260901194611 | 26 | 243 | 1.6 | 4.8 | 0.05 | 0.08 | 0.08 | 91 | 1014.1 |
| 20260901193103 | 27 | 267 | 0.0 | 1.6 | 0.05 | 0.08 | 0.08 | 89 | 1013.8 |
| 20260901191636 | 27 | 0 | 0.0 | 3.2 | 0.00 | 0.03 | 0.03 | 84 | 1013.6 |
| 20260901190106 | 28 | 243 | 3.2 | 8.0 | 0.00 | 0.03 | 0.03 | 79 | 1014.3 |
| 20260901184605 | 29 | 240 | 3.2 | 6.4 | 0.00 | 0.03 | 0.03 | 76 | 1014.1 |
| 20260901183100 | 30 | 274 | 1.6 | 8.0 | 0.00 | 0.03 | 0.03 | 76 | 1014.0 |
| 20260901181619 | 30 | 276 | 3.2 | 9.7 | 0.00 | 0.03 | 0.03 | 77 | 1014.0 |
| 20260901180105 | 30 | 295 | 0.0 | 3.2 | 0.00 | 0.03 | 0.03 | 81 | 1013.9 |
| 20260901174601 | 28 | 260 | 1.6 | 3.2 | 0.00 | 0.03 | 0.03 | 83 | 1014.0 |
| 20260901173111 | 28 | 274 | 0.0 | 4.8 | 0.00 | 0.03 | 0.03 | 83 | 1014.1 |
| 20260901171606 | 28 | 149 | 0.0 | 1.6 | 0.00 | 0.03 | 0.03 | 87 | 1014.2 |
| 20260901170104 | 27 | 0 | 0.0 | 1.6 | 0.00 | 0.03 | 0.03 | 91 | 1014.2 |
| 20260901164618 | 26 | 0 | 0.0 | 1.6 | 0.00 | 0.03 | 0.03 | 92 | 1014.3 |